Вернуться в каталог

SL-8 DEB

АктивенLEO
NORAD 21154·DEBRIS·🇷🇺 Russia

Запущен Feb 12, 1991 с Plesetsk Cosmodrome

Loading…

Ближайшие Пролёты (ближайшие 24 часа)

TLE

СвежийSource: Space-Track

Эпоха: Sep 13, 2026, 09:21 UTC

1 21154U 91009R   26256.39020342  .00000221  00000-0  27115-2 0  9999
2 21154  74.2579 147.9349 0192055 205.9676 153.1615 12.01339863 60412

Отслеживайте SL-8 DEB в реальном времени с AllMySat

Download on the App Store